Location: Newark
(42.8481°N, 0.4872°E)
Time: 08:07:00
(UTC+00:00)

Vanguard 2 - Pass Details

Date: 30 October 2020
Orbit: 554 x 2937 km, 32.9° (Epoch: 28 November)

Event Time Altitude Azimuth Distance (km) Brightness Sun altitude
Rises 22:50:17 0° 271° (W) 6,054 12.3 -59.3°
Reaches altitude 10° 22:54:05 10° 267° (W) 5,276 11.8 -59.5°
Enters shadow 22:57:43 21° 261° (W) 4,598 11.4 -59.8°
Maximum altitude 23:09:46 52° 198° (SSW) 3,426 - -60.5°
Drops below altitude 10° 23:25:58 10° 129° (SE) 5,420 - -61.1°
Sets 23:29:57 0° 124° (SE) 6,222 - -61.2°
